Kars, Turkey

5:22 AM +03 on April 29, 2017 (GMT +0300)
Kars

Weather History for LTCF - November, 2012

Change the Weather History Date:

Thursday, November 22, 2012

  Actual Average Record
Temperature  
Mean Temperature 37 °F -  
Max Temperature 42 °F 33 °F - ()
Min Temperature 32 °F 17 °F - ()
Degree Days  
Heating Degree Days 28    
Moisture  
Dew Point 33 °F    
Average Humidity 88    
Maximum Humidity 100    
Minimum Humidity 61    
Precipitation  
Precipitation 0.00 in 0.03 in - ()
Sea Level Pressure  
Sea Level Pressure 30.21 in    
Wind  
Wind Speed 4 mph ()    
Max Wind Speed 9 mph    
Max Gust Speed -    
Visibility 5.5 miles    
Events Fog    
T = Trace of Precipitation, MM = Missing Value Source: Averaged Metar Reports

Daily Weather History Graph

Daily Weather History Graph

Search for Another Location

Airport or City:

Trip Planner

Search our weather history database for the weather conditions in past years. The results will help you decide how hot, cold, wet, or windy it might be!

Date:

Astronomy

Nov. 22, 2012 Rise Set
Actual Time 6:02 AM EET 3:44 PM EET
Civil Twilight 5:32 AM EET 4:14 PM EET
Nautical Twilight 4:58 AM EET 4:48 PM EET
Astronomical Twilight 4:26 AM EET 5:20 PM EET
Moon 12:21 PM EET (11/22) No Moon Set
Length of Visible Light 10h 42m
Length of Day
9h 42m
Waxing Gibbous, 68% of the Moon is Illuminated
Nov 22
Waxing Gibbous
Nov 28
Full
Dec 6
Last Quarter
Dec 13
New
Dec 20
First Quarter

Hourly Weather History & Observations

Time (EET) Temp. Windchill Dew Point Humidity Pressure Visibility Wind Dir Wind Speed Gust Speed Precip Events Conditions
12:50 AM 33.8 °F 29.6 °F 33.8 °F 100% 30.21 in 6.2 mi NNE 4.6 mph - N/A   Mostly Cloudy
1:50 AM 33.8 °F 30.8 °F 33.8 °F 100% 30.21 in 6.2 mi NE 3.5 mph - N/A   Mostly Cloudy
2:00 AM 35 °F - 34 °F 95%  in 6 mi NE 3.5 mph - -   Mostly Cloudy
2:50 AM 33.8 °F 28.6 °F 33.8 °F 100% 30.21 in 6.2 mi NE 5.8 mph - N/A   Mostly Cloudy
3:50 AM 33.8 °F 27.7 °F 33.8 °F 100% 30.21 in 6.2 mi NE 6.9 mph - N/A   Mostly Cloudy
4:50 AM 33.8 °F 29.6 °F 33.8 °F 100% 30.21 in 6.2 mi NE 4.6 mph - N/A   Mostly Cloudy
5:50 AM 33.8 °F 29.6 °F 33.8 °F 100% 30.21 in 0.6 mi NNE 4.6 mph - N/A Fog Patches of Fog
6:50 AM 33.8 °F 28.6 °F 33.8 °F 100% 30.24 in 0.6 mi NNE 5.8 mph - N/A Fog Patches of Fog
7:50 AM 33.8 °F 29.6 °F 33.8 °F 100% 30.24 in 2.5 mi NE 4.6 mph - N/A   Mostly Cloudy
8:00 AM 34 °F - 34 °F 99%  in 2 mi NE 4.6 mph - -   Mist
8:50 AM 35.6 °F 30.7 °F 35.6 °F 100% 30.24 in 6.2 mi NE 5.8 mph - N/A   Mostly Cloudy
9:50 AM 37.4 °F 33.8 °F 33.8 °F 87% 30.24 in 6.2 mi NNE 4.6 mph - N/A   Mostly Cloudy
10:50 AM 41.0 °F 35.2 °F 33.8 °F 76% 30.21 in 6.2 mi NNE 9.2 mph - N/A   Mostly Cloudy
11:50 AM 41.0 °F 35.2 °F 32.0 °F 70% 30.18 in 6.2 mi NNE 9.2 mph - N/A   Mostly Cloudy
12:50 PM 41.0 °F 37.1 °F 28.4 °F 61% 30.18 in 6.2 mi ESE 5.8 mph - N/A   Mostly Cloudy
1:50 PM 39.2 °F 35.9 °F 32.0 °F 75% 30.18 in 6.2 mi SSW 4.6 mph - N/A   Mostly Cloudy
2:00 PM 39 °F - 32 °F 67%  in 6 mi SSW 4.6 mph - -   Mostly Cloudy
2:50 PM 39.2 °F - 30.2 °F 70% 30.18 in 6.2 mi North 1.2 mph - N/A   Mostly Cloudy
3:50 PM 39.2 °F 35.9 °F 32.0 °F 75% 30.18 in 6.2 mi North 4.6 mph - N/A   Mostly Cloudy
4:50 PM 37.4 °F 33.8 °F 32.0 °F 81% 30.21 in 6.2 mi North 4.6 mph - N/A   Mostly Cloudy
5:50 PM 37.4 °F - 32.0 °F 81% 30.21 in 6.2 mi NNE 2.3 mph - N/A   Mostly Cloudy
6:50 PM 37.4 °F 33.8 °F 32.0 °F 81% 30.21 in 6.2 mi East 4.6 mph - N/A   Mostly Cloudy
7:50 PM 35.6 °F - 32.0 °F 87% 30.21 in 6.2 mi Calm Calm - N/A   Mostly Cloudy
8:00 PM 36 °F - 33 °F 83%  in 6 mi Calm Calm - -   Partly Cloudy
8:50 PM 33.8 °F - 30.2 °F 87% 30.21 in 6.2 mi Variable 2.3 mph - N/A   Mostly Cloudy
9:50 PM 33.8 °F - 33.8 °F 100% 30.21 in 6.2 mi Variable 1.2 mph - N/A   Mostly Cloudy
10:50 PM 33.8 °F - 33.8 °F 100% 30.21 in 6.2 mi Calm Calm - N/A   Mostly Cloudy
11:50 PM 33.8 °F - 33.8 °F 100% 30.21 in 6.2 mi Variable 1.2 mph - N/A   Mostly Cloudy